Weather History for Ravenna, OH

Change the Weather History Date:

Wednesday, February 20, 2013

  Actual Average (KCAK) Record (KCAK)
Temperature  
Mean Temperature 18 °F 30 °F  
Max Temperature 20 °F 38 °F 66 °F (1930)
Min Temperature 15 °F 22 °F -7 °F (1936)
Degree Days  
Heating Degree Days 48 35  
Month to date heating degree days 737  
Since 1 July heating degree days 4273  
Cooling Degree Days 0 0  
Month to date cooling degree days 0  
Year to date cooling degree days 0  
Moisture  
Dew Point 11 °F    
Average Humidity 73    
Maximum Humidity 87    
Minimum Humidity 57    
Precipitation  
Precipitation 0.00 in 0.08 in 0.53 in (1981)
Month to date precipitation 1.62  
Year to date precipitation 4.23  
Snow  
Snow 0.00 in 0.40 in - ()
Month to date snowfall 7.4  
Since 1 July snowfall 33.4  
Snow Depth -    
Sea Level Pressure  
Sea Level Pressure 30.06 in    
Wind  
Wind Speed 13 mph (West)    
Max Wind Speed 18 mph    
Max Gust Speed 24 mph    
Visibility 6 miles    
Events Snow    
T = Trace of Precipitation, MM = Missing Value Source: NWS Daily Summary

Daily Weather History Graph

Daily Weather History Graph

Search for Another Location

Airport:

Trip Planner

Search our weather history database for the weather conditions in past years. The results will help you decide how hot, cold, wet, or windy it might be!

Date:

Astronomy

Feb. 20, 2013 Rise Set
Actual Time 7:12 AM EST 6:05 PM EST
Civil Twilight 6:44 AM EST 6:33 PM EST
Nautical Twilight 6:12 AM EST 7:05 PM EST
Astronomical Twilight 5:40 AM EST 7:37 PM EST
Moon 1:23 PM EST (2/20) 3:33 AM EST (2/20)
Length of Visible Light 11h 49m
Length of Day
10h 53m
Waxing Gibbous, 76% of the Moon is Illuminated
Feb 20
Waxing Gibbous
Feb 25
Full
Mar 4
Last Quarter
Mar 11
New
Mar 19
First Quarter

Hourly Weather History & Observations

Time (EST) Temp. Windchill Dew Point Humidity Pressure Visibility Wind Dir Wind Speed Gust Speed Precip Events Conditions
12:15 AM 17.2 °F 3.9 °F 10.9 °F 76% 29.93 in 5.0 mi WSW 12.7 mph 21.9 mph N/A Snow Light Snow
12:35 AM 16.7 °F 2.0 °F 10.9 °F 78% 29.93 in 4.0 mi West 15.0 mph 21.9 mph N/A Snow Light Snow
1:16 AM 16.3 °F 2.7 °F 10.8 °F 79% 29.93 in 4.0 mi WSW 12.7 mph 21.9 mph N/A Snow Light Snow
1:35 AM 16.3 °F 1.6 °F 10.8 °F 79% 29.93 in 5.0 mi West 15.0 mph 20.7 mph N/A Snow Light Snow
1:56 AM 16.3 °F 4.9 °F 10.6 °F 78% 29.94 in 5.0 mi West 9.2 mph - N/A Snow Light Snow
2:16 AM 16.0 °F 1.1 °F 9.1 °F 74% 29.95 in 10.0 mi WSW 15.0 mph 20.7 mph N/A Snow Light Snow
2:35 AM 15.8 °F 2.7 °F 9.1 °F 75% 29.95 in 7.0 mi WSW 11.5 mph 18.4 mph N/A Snow Light Snow
2:56 AM 15.8 °F 1.4 °F 8.8 °F 74% 29.95 in 10.0 mi WSW 13.8 mph 18.4 mph N/A Snow Light Snow
3:16 AM 15.8 °F 1.4 °F 8.6 °F 73% 29.95 in 10.0 mi WSW 13.8 mph 18.4 mph N/A Snow Light Snow
3:35 AM 16.3 °F 2.1 °F 8.8 °F 72% 29.95 in 10.0 mi WSW 13.8 mph - N/A Snow Light Snow
3:56 AM 16.5 °F 2.4 °F 9.0 °F 72% 29.95 in 10.0 mi WSW 13.8 mph - N/A Snow Light Snow
4:16 AM 16.7 °F 3.8 °F 9.5 °F 73% 29.95 in 7.0 mi WSW 11.5 mph 17.3 mph N/A Snow Light Snow
4:35 AM 16.7 °F 2.6 °F 9.7 °F 74% 29.96 in 7.0 mi WSW 13.8 mph 20.7 mph N/A Snow Light Snow
4:56 AM 16.7 °F 4.5 °F 9.9 °F 74% 29.97 in 7.0 mi West 10.4 mph 18.4 mph N/A Snow Light Snow
5:16 AM 16.7 °F 3.8 °F 9.7 °F 74% 29.98 in 7.0 mi WSW 11.5 mph 21.9 mph N/A Snow Light Snow
5:36 AM 16.7 °F 2.0 °F 10.0 °F 75% 29.98 in 7.0 mi West 15.0 mph 21.9 mph N/A Snow Light Snow
5:55 AM 16.7 °F 2.0 °F 9.7 °F 74% 29.98 in 10.0 mi West 15.0 mph 24.2 mph N/A Snow Light Snow
6:16 AM 17.1 °F 4.3 °F 9.7 °F 73% 29.98 in 7.0 mi West 11.5 mph 19.6 mph N/A Snow Light Snow
6:35 AM 17.1 °F 1.5 °F 9.9 °F 73% 29.99 in 10.0 mi WSW 17.3 mph 20.7 mph N/A Snow Light Snow
7:16 AM 16.7 °F 2.6 °F 10.6 °F 77% 30.00 in 4.0 mi WSW 13.8 mph 23.0 mph N/A Snow Light Snow
7:35 AM 16.7 °F 2.0 °F 10.6 °F 77% 30.00 in 4.0 mi WSW 15.0 mph 23.0 mph N/A Snow Light Snow
7:56 AM 16.7 °F 2.0 °F 10.8 °F 77% 30.00 in 3.0 mi WSW 15.0 mph 23.0 mph N/A Snow Light Snow
8:16 AM 17.1 °F 1.5 °F 10.9 °F 77% 30.01 in 3.0 mi West 17.3 mph 23.0 mph N/A Snow Light Snow
8:56 AM 17.4 °F 2.9 °F 11.5 °F 78% 30.01 in 2.0 mi WSW 15.0 mph 21.9 mph N/A Snow Light Snow
9:16 AM 18.0 °F 3.6 °F 12.0 °F 78% 30.02 in 2.5 mi WSW 15.0 mph 23.0 mph N/A Snow Light Snow
9:35 AM 18.0 °F 3.6 °F 12.0 °F 78% 30.02 in 2.0 mi West 15.0 mph 24.2 mph N/A Snow Light Snow
9:56 AM 17.4 °F 2.9 °F 12.7 °F 82% 30.03 in 0.5 mi West 15.0 mph 20.7 mph N/A Snow Snow
10:35 AM 18.1 °F 4.4 °F 12.6 °F 79% 30.05 in 1.0 mi West 13.8 mph 23.0 mph N/A Snow Light Snow
10:56 AM 18.5 °F 4.9 °F 13.6 °F 81% 30.05 in 0.8 mi WNW 13.8 mph 19.6 mph N/A Snow Light Snow
11:16 AM 18.9 °F 4.8 °F 12.7 °F 77% 30.06 in 1.8 mi West 15.0 mph 21.9 mph N/A Snow Light Snow
11:35 AM 18.9 °F 4.8 °F 12.6 °F 76% 30.06 in 2.0 mi West 15.0 mph 19.6 mph N/A Snow Light Snow
11:56 AM 18.1 °F 5.0 °F 12.7 °F 79% 30.07 in 0.8 mi West 12.7 mph 23.0 mph N/A Snow Light Snow
12:16 PM 18.3 °F 5.2 °F 13.1 °F 80% 30.07 in 1.0 mi West 12.7 mph - N/A Snow Light Snow
12:35 PM 18.5 °F 6.1 °F 12.0 °F 76% 30.08 in 1.8 mi WNW 11.5 mph 17.3 mph N/A Snow Light Snow
12:56 PM 18.9 °F 4.3 °F 13.5 °F 79% 30.08 in 1.0 mi WNW 16.1 mph 21.9 mph N/A Snow Light Snow
1:15 PM 19.4 °F 7.2 °F 11.8 °F 72% 30.08 in 7.0 mi West 11.5 mph 17.3 mph N/A Snow Light Snow
1:36 PM 19.9 °F 6.2 °F 9.5 °F 64% 30.08 in 10.0 mi West 15.0 mph 23.0 mph N/A   Overcast
1:55 PM 19.4 °F 6.0 °F 11.1 °F 70% 30.09 in 4.0 mi WNW 13.8 mph 18.4 mph N/A Snow Light Snow
2:16 PM 19.9 °F 6.2 °F 9.9 °F 65% 30.09 in 10.0 mi West 15.0 mph 23.0 mph N/A   Overcast
2:35 PM 19.8 °F 8.3 °F 10.4 °F 67% 30.09 in 4.0 mi WNW 10.4 mph 20.7 mph N/A Snow Light Snow
2:56 PM 20.3 °F 8.3 °F 9.0 °F 62% 30.10 in 10.0 mi West 11.5 mph - N/A   Overcast
3:15 PM 19.9 °F 9.3 °F 10.6 °F 67% 30.10 in 7.0 mi WNW 9.2 mph 16.1 mph N/A Snow Light Snow
3:35 PM 20.1 °F 7.5 °F 8.2 °F 60% 30.11 in 10.0 mi WNW 12.7 mph 21.9 mph N/A   Overcast
3:56 PM 20.3 °F 5.2 °F 9.0 °F 62% 30.12 in 10.0 mi West 18.4 mph 21.9 mph N/A   Overcast
4:16 PM 20.1 °F 6.9 °F 8.2 °F 60% 30.13 in 10.0 mi West 13.8 mph 19.6 mph N/A   Overcast
4:35 PM 20.1 °F 5.4 °F 8.1 °F 60% 30.14 in 10.0 mi West 17.3 mph 23.0 mph N/A   Overcast
4:56 PM 20.3 °F 6.1 °F 7.3 °F 57% 30.15 in 10.0 mi West 16.1 mph 19.6 mph N/A   Overcast
5:16 PM 20.3 °F 7.7 °F 7.7 °F 58% 30.15 in 7.0 mi WNW 12.7 mph - N/A   Overcast
5:35 PM 20.1 °F 6.4 °F 7.7 °F 59% 30.15 in 10.0 mi West 15.0 mph - N/A   Overcast
5:56 PM 19.9 °F 7.9 °F 8.4 °F 61% 30.15 in 10.0 mi West 11.5 mph 16.1 mph N/A   Overcast
6:16 PM 19.9 °F 7.3 °F 9.0 °F 62% 30.15 in 10.0 mi West 12.7 mph - N/A   Overcast
6:35 PM 19.4 °F 7.2 °F 9.5 °F 65% 30.15 in 10.0 mi West 11.5 mph - N/A   Overcast
6:56 PM 19.8 °F 6.5 °F 8.6 °F 62% 30.15 in 10.0 mi West 13.8 mph 19.6 mph N/A   Overcast
7:16 PM 19.8 °F 5.9 °F 9.1 °F 63% 30.15 in 10.0 mi West 15.0 mph 18.4 mph N/A   Overcast
7:35 PM 19.4 °F 8.6 °F 9.5 °F 65% 30.15 in 10.0 mi West 9.2 mph - N/A Snow Light Snow
7:56 PM 19.6 °F 5.7 °F 10.2 °F 67% 30.16 in 10.0 mi West 15.0 mph - N/A Snow Light Snow
8:16 PM 19.4 °F 6.6 °F 11.1 °F 70% 30.16 in 7.0 mi West 12.7 mph 17.3 mph N/A Snow Light Snow
8:35 PM 19.4 °F 8.6 °F 11.8 °F 72% 30.16 in 10.0 mi West 9.2 mph - N/A Snow Light Snow
8:56 PM 19.2 °F 8.4 °F 12.2 °F 74% 30.16 in 7.0 mi West 9.2 mph - N/A Snow Light Snow
9:15 PM 19.0 °F 8.2 °F 12.9 °F 77% 30.16 in 4.0 mi West 9.2 mph - N/A Snow Light Snow
9:36 PM 18.9 °F 8.0 °F 13.6 °F 80% 30.17 in 5.0 mi West 9.2 mph - N/A Snow Light Snow
9:56 PM 18.9 °F 8.0 °F 13.8 °F 81% 30.17 in 5.0 mi West 9.2 mph - N/A Snow Light Snow
10:16 PM 18.9 °F 8.8 °F 14.4 °F 83% 30.17 in 5.0 mi WSW 8.1 mph - N/A Snow Light Snow
10:35 PM 18.5 °F 9.3 °F 14.5 °F 85% 30.16 in 5.0 mi WSW 6.9 mph - N/A Snow Light Snow
10:56 PM 18.5 °F 9.3 °F 14.9 °F 86% 30.16 in 5.0 mi WSW 6.9 mph - N/A Snow Light Snow
11:16 PM 18.5 °F 8.4 °F 14.9 °F 86% 30.16 in 4.0 mi WSW 8.1 mph - N/A Snow Light Snow
11:35 PM 18.5 °F 9.3 °F 15.3 °F 87% 30.15 in 4.0 mi WSW 6.9 mph - N/A Snow Light Snow
11:55 PM 18.5 °F 8.4 °F 15.3 °F 87% 30.15 in 4.0 mi WSW 8.1 mph - N/A Snow Light Snow